#timestamp,LO_Frequency,Hit,StdDev 
1691175615.0,286047002.5,N
1691175615.9,286047002.5,N
1691175635.8,286047004.3,Y
1691175655.6,286047006.0,P
1691175675.5,286047005.3,N
1691175695.3,286047007.3,P
1691175715.1,286047008.9,Y
1691175735.9,286047002.1,P
1691175755.7,286047002.7,N
1691175775.5,286047004.3,P
1691175795.4,286047007.3,Y
1691175815.2,286047003.9,P
1691175835.1,286046999.8,N
1691175836.0,286046999.8,N
1691175855.8,286047002.5,N
1691175875.6,286047002.7,N
1691175895.5,286047003.9,N
1691175915.3,286047003.9,N
1691175935.2,286047002.9,N
1691175955.9,286047006.0,Y
1691175975.7,286047001.7,P
1691175995.6,286047004.1,P
1691176015.4,286047009.2,P
1691176035.2,286047005.4,N
1691176055.1,286047007.4,N
1691176056.0,286047007.4,N
1691176075.8,286047008.0,Y
1691176095.7,286047002.9,P
1691176115.5,286047006.2,P
1691176135.3,286047008.6,P
1691176155.2,286047007.7,Y
1691176175.0,286047007.4,P
1691176175.9,286047007.4,P
1691176195.8,286047005.7,P
1691176215.6,286047006.8,Y
1691176235.4,286046998.1,P
1691176255.3,286046998.1,N
1691176275.1,286046999.3,N
1691176295.8,286046998.3,N
1691176315.7,286046998.6,N
1691176335.5,286047002.5,N
1691176355.4,286046999.1,N
1691176375.2,286047001.0,N
1691176395.0,286047001.7,N
1691176395.9,286047001.7,N
1691176415.8,286047003.7,N
1691176435.6,286047004.3,N
1691176455.4,286047005.7,N
1691176475.3,286047007.6,N
1691176495.1,286047006.9,N
1691176515.9,286047005.3,N
1691176535.7,286047006.3,N
1691176555.5,286047007.0,N
1691176575.4,286047006.2,N
1691176595.2,286047006.7,N
1691176615.0,286047007.6,N
1691176616.0,286047007.6,N
1691176635.8,286047009.0,N
1691176655.6,286047005.4,N
1691176675.5,286047010.8,Y
1691176695.3,286047007.3,P
1691176715.1,286047004.7,N
1691176735.9,286047008.5,P
1691176755.7,286047006.5,Y
1691176775.6,286047006.0,P
1691176795.4,286046999.7,P
1691176815.2,286047002.4,N
1691176835.1,286046996.7,N
1691176836.0,286046996.7,N
1691176855.8,286046995.4,N
1691176875.6,286046996.1,N
1691176895.5,286046995.4,N
1691176915.3,286046998.8,N
1691176935.2,286047000.0,N
1691176955.9,286047007.3,N
1691176975.7,286047009.8,N
1691176995.6,286047011.7,N
1691177015.4,286047011.7,N
1691177035.3,286047012.6,N
1691177055.1,286047015.2,N
1691177056.0,286047015.2,N
1691177075.8,286047012.5,N
1691177095.7,286047015.3,N
1691177115.5,286047012.5,N
1691177135.3,286047015.5,N
1691177155.2,286047012.7,N
1691177175.0,286047015.1,N
1691177175.9,286047015.1,N
1691177195.8,286047015.1,N
1691177215.6,286047016.2,N
1691177235.4,286047017.8,N
1691177255.3,286047019.2,N
1691177275.1,286047016.4,N
1691177295.8,286047014.4,N
1691177315.7,286047020.4,N
1691177335.5,286047018.5,N
1691177355.4,286047020.1,N
1691177375.2,286047019.9,N
1691177395.0,286047022.0,N
1691177395.9,286047022.0,N
1691177415.8,286047023.0,Y
1691177435.6,286047009.8,P
1691177455.5,286047008.5,P
1691177475.3,286047006.5,P
1691177495.1,286047004.6,N
1691177515.9,286047007.3,N
1691177535.7,286047007.9,N
1691177555.6,286047012.5,Y
1691177575.4,286047006.9,P
1691177595.2,286047006.8,P
1691177615.1,286047012.2,P
1691177616.0,286047012.2,Y
1691177635.8,286047002.6,P
1691177655.6,286047001.9,N
1691177675.5,286046999.5,N
1691177695.3,286046996.5,N
1691177715.2,286046997.3,N
1691177735.9,286046997.5,N
1691177755.7,286047001.1,N
1691177775.6,286047002.3,N
1691177795.4,286047002.2,N
1691177815.2,286047001.8,N
1691177835.1,286047002.3,N
1691177836.0,286047002.3,N
1691177855.8,286047003.4,N
1691177875.7,286047003.4,N
1691177895.5,286047007.5,N
1691177915.3,286047005.6,N
1691177935.2,286046999.7,N
1691177955.0,286047000.3,N
1691177955.9,286047000.3,N
1691177975.7,286047001.0,N
1691177995.6,286046998.7,N
1691178015.4,286046996.6,N
1691178035.3,286046998.3,N
1691178055.1,286047000.8,N
1691178056.0,286047000.8,N
1691178075.8,286047002.1,N
1691178095.7,286047005.9,N
1691178115.5,286047004.1,N
1691178135.4,286047001.7,N
1691178155.2,286047003.7,N
1691178175.0,286047007.0,N
1691178175.9,286047007.0,N
1691178195.8,286047007.4,N
1691178215.6,286047008.4,N
1691178235.4,286047011.9,Y
1691178255.3,286047010.5,P
1691178275.1,286047009.6,N
1691178295.9,286047012.9,P
1691178315.7,286047017.5,Y
1691178335.5,286047009.5,P
1691178355.4,286047013.5,P
1691178375.2,286047014.2,P
1691178395.1,286047015.0,Y
1691178396.0,286047015.0,P
1691178415.8,286047006.0,P
1691178435.6,286047004.7,N
1691178455.5,286047003.1,N
1691178475.3,286047002.9,N
1691178495.1,286047005.1,N
1691178515.9,286047007.5,N
1691178535.7,286047007.9,N
1691178555.6,286047008.1,N
1691178575.4,286047013.4,Y
1691178595.2,286047005.4,P
1691178615.1,286047008.7,P
1691178616.0,286047008.7,P
1691178635.8,286047006.3,Y
1691178655.7,286046998.8,P
1691178675.5,286046999.1,N
1691178695.3,286046998.4,N
1691178715.2,286047000.0,N
1691178735.0,286046999.7,N
1691178735.9,286046999.7,N
1691178755.8,286046999.7,N
1691178775.6,286047004.1,N
1691178795.4,286047002.8,N
1691178815.3,286047000.3,N
1691178835.1,286047004.3,N
1691178855.9,286047009.0,Y
1691178875.7,286047005.6,P
1691178895.5,286047005.9,N
1691178915.4,286047007.3,P
1691178935.2,286047003.3,N
1691178955.1,286047010.0,Y
1691178956.0,286047010.0,P
1691178975.8,286047006.2,N
1691178995.6,286047010.7,P
1691179015.5,286047007.0,N
1691179035.3,286047004.2,N
1691179055.1,286047006.9,N
1691179075.9,286047009.1,Y
1691179095.7,286046998.1,P
1691179115.6,286047000.3,N
1691179135.4,286047002.3,N
1691179155.2,286047002.4,N
1691179175.1,286047003.3,N
1691179176.0,286047003.3,N
1691179195.8,286047006.2,N
